Date,TemperatureHighF,TemperatureAvgF,TemperatureLowF,DewpointHighF,DewpointAvgF,DewpointLowF,HumidityHigh,HumidityAvg,HumidityLow,PressureMaxIn,PressureMinIn,WindSpeedMaxMPH,WindSpeedAvgMPH,GustSpeedMaxMPH,PrecipitationSumIn
2012-1-1,64.9,51.1,34.7,55.5,39.8,28.6,89,67,36,30.12,29.90,30,5,30,0.00
2012-1-2,47.4,36.7,25.9,29.0,15.4,5.4,80,46,18,30.16,29.94,25,4,26,0.00
2012-1-3,37.7,26.7,16.2,11.8,8.3,4.8,73,47,29,30.36,30.16,20,2,20,0.00
2012-1-4,46.9,33.1,18.2,20.2,13.0,8.8,79,47,22,30.38,30.11,18,4,18,0.00
2012-1-5,58.7,43.5,29.1,32.4,26.9,20.2,86,55,29,30.17,30.07,16,2,17,0.00
2012-1-6,66.0,50.2,34.4,33.6,28.7,24.5,70,46,27,30.11,29.98,14,3,17,0.00
2012-1-7,68.8,56.2,47.9,55.1,45.3,28.8,86,68,43,30.08,29.95,20,5,20,0.01
2012-1-8,55.2,52.2,48.4,51.6,49.2,45.5,93,89,81,30.22,30.06,12,1,13,0.08
2012-1-9,50.6,48.6,46.0,48.3,45.7,43.4,93,90,86,30.20,30.05,5,0,5,0.06
2012-1-10,57.5,52.6,48.7,50.1,48.9,47.0,94,88,73,30.10,29.93,17,1,17,0.00
2012-1-11,59.9,51.8,48.4,56.3,48.3,43.4,94,88,70,29.93,29.46,31,4,31,0.73
2012-1-12,54.6,47.6,32.1,47.6,41.0,15.1,92,78,50,29.76,29.53,36,8,38,0.08
2012-1-13,39.4,31.8,25.8,21.7,18.3,14.1,72,58,44,30.12,29.76,25,6,25,0.00
2012-1-14,48.6,34.8,20.0,24.1,19.6,15.2,87,57,34,30.25,30.10,20,3,20,0.00
2012-1-15,50.7,39.1,29.9,28.2,24.8,21.8,82,58,35,30.50,30.11,13,2,13,0.00
2012-1-16,46.9,37.5,27.6,34.8,29.4,22.0,83,73,56,30.57,30.36,13,1,14,0.00
2012-1-17,54.6,47.7,37.8,51.6,42.0,32.4,91,81,64,30.36,29.91,18,4,18,0.86
2012-1-18,54.3,44.0,34.0,51.7,32.8,23.7,91,67,35,30.08,29.90,12,2,12,0.02
2012-1-19,46.1,35.5,27.0,29.1,25.6,22.0,82,68,48,30.23,30.08,12,1,12,0.00
2012-1-20,50.6,43.4,30.6,43.2,35.3,26.0,92,74,51,30.14,30.05,9,2,10,0.65
2012-1-21,52.8,47.3,42.4,50.2,44.9,40.2,93,92,90,30.08,29.86,16,1,16,0.69
2012-1-22,48.6,42.8,37.9,46.1,39.2,35.0,92,87,82,30.30,30.08,18,4,18,0.00
2012-1-23,49.5,39.1,36.3,47.0,36.8,33.9,92,91,89,30.25,30.04,17,2,17,0.42
2012-1-24,62.4,48.8,41.3,49.4,43.4,36.1,92,83,53,30.24,30.03,16,2,16,0.00
2012-1-25,64.3,50.1,35.1,45.8,38.4,31.4,87,66,39,30.33,30.17,9,1,9,0.00
2012-1-26,61.2,53.4,48.1,57.5,48.9,41.9,91,85,74,30.17,29.68,14,0,14,0.11
2012-1-27,63.2,55.6,38.9,57.8,45.0,33.3,89,70,37,30.01,29.61,25,5,25,0.12
2012-1-28,66.1,45.6,32.0,41.1,34.2,25.3,92,67,36,30.25,30.00,16,2,16,0.00
2012-1-29,54.2,41.6,27.0,25.6,15.7,5.6,71,38,15,30.39,30.25,18,3,21,0.00
2012-1-30,59.9,47.6,29.9,27.3,20.6,15.1,69,36,22,30.43,30.31,17,3,17,0.00
2012-1-31,62.7,51.8,33.3,34.4,26.6,20.2,72,39,22,30.39,30.27,17,4,21,0.00
2012-2-1,63.2,53.6,42.8,50.6,42.6,32.8,90,67,51,30.28,30.06,18,4,21,0.09
2012-2-2,70.7,57.2,48.3,53.2,44.3,32.7,91,66,27,30.28,30.01,16,2,16,0.00
2012-2-3,60.9,48.8,41.1,35.5,32.8,26.7,74,56,32,30.46,30.28,17,1,17,0.00
2012-2-4,54.2,48.2,43.2,49.1,44.1,35.2,91,86,72,30.35,30.03,14,1,14,0.14
2012-2-5,70.5,57.0,45.3,55.9,50.4,41.0,92,80,49,30.17,29.94,20,4,20,0.23
2012-2-6,49.2,42.4,35.3,41.9,36.5,32.4,91,80,65,30.25,30.13,16,2,16,0.00
2012-2-7,57.5,43.9,32.8,38.9,34.9,30.4,92,73,45,30.20,30.11,12,1,13,0.00
2012-2-8,58.7,45.9,36.7,40.2,35.3,30.4,89,68,43,30.18,30.07,6,1,13,0.00
2012-2-9,49.4,40.1,31.4,32.8,30.0,25.6,79,68,49,30.29,30.18,18,1,18,0.00
2012-2-10,50.7,42.4,31.6,37.5,34.1,28.3,90,73,59,30.19,29.88,16,3,16,0.00
2012-2-11,45.2,35.0,23.6,35.3,20.3,3.3,88,57,32,30.20,29.80,29,4,29,0.00
2012-2-12,41.9,28.9,18.8,14.9,9.3,3.7,63,45,28,30.37,30.20,17,3,17,0.00
2012-2-13,50.6,37.6,23.2,24.2,17.7,13.4,74,46,26,30.30,30.10,16,2,16,0.00
2012-2-14,45.1,40.9,36.5,37.7,33.8,21.5,89,77,45,30.11,30.02,22,3,22,0.02
2012-2-15,64.8,47.5,31.6,42.1,35.6,29.1,93,68,32,30.27,30.11,13,1,13,0.00
2012-2-16,55.9,49.4,44.2,51.8,44.6,37.3,92,84,70,30.22,30.00,9,1,9,0.09
2012-2-17,63.7,51.8,42.1,45.5,42.7,38.9,92,73,50,30.14,30.03,12,2,12,0.01
2012-2-18,62.0,52.1,41.2,47.5,40.8,33.4,92,67,47,30.11,29.91,12,1,13,0.03
2012-2-19,49.7,42.5,33.6,46.6,40.0,31.1,92,91,88,29.97,29.69,23,3,23,0.37
2012-2-20,53.9,39.5,29.8,35.7,29.0,21.1,93,70,29,30.32,29.97,20,2,20,0.01
2012-2-21,53.7,41.6,29.2,41.1,33.8,25.4,89,75,54,30.32,30.01,22,3,22,0.00
2012-2-22,65.3,54.2,43.8,51.5,46.4,39.0,91,76,54,30.02,29.59,31,7,31,0.21
2012-2-23,73.5,62.3,52.4,59.1,54.1,49.6,92,76,52,29.68,29.56,29,6,29,0.01
2012-2-24,71.2,62.3,42.2,62.8,48.6,19.2,83,64,26,29.95,29.51,32,7,38,0.00
2012-2-25,54.1,43.9,35.6,24.3,18.4,11.7,55,37,21,30.31,29.94,26,5,30,0.00
2012-2-26,55.2,39.7,28.1,28.2,23.5,18.6,76,55,28,30.50,30.29,13,2,13,0.00
2012-2-27,63.4,50.1,35.6,51.4,42.0,27.5,88,74,64,30.44,30.28,13,1,13,0.00
2012-2-28,67.8,54.3,37.7,49.8,43.3,35.0,92,69,41,30.40,30.25,13,2,13,0.00
2012-2-29,63.3,58.2,53.2,59.2,54.9,49.2,92,89,72,30.26,29.84,14,3,20,0.10
2012-3-1,77.8,67.3,60.7,59.6,46.9,24.4,91,56,14,29.87,29.76,21,6,23,0.00
2012-3-2,64.5,55.7,49.4,59.6,47.0,40.2,92,74,47,29.90,29.65,17,1,17,0.04
2012-3-3,64.1,55.5,49.3,59.5,44.3,24.6,92,69,36,29.77,29.60,22,2,22,1.94
2012-3-4,50.2,45.5,38.7,36.2,22.4,13.3,62,41,23,30.03,29.68,34,4,34,0.00
2012-3-5,56.2,45.1,35.5,29.4,22.2,15.1,65,42,24,30.47,29.92,21,4,23,0.00
2012-3-6,57.6,41.1,27.3,27.8,23.3,18.6,77,52,26,30.64,30.46,13,1,13,0.00
2012-3-7,63.3,50.7,38.3,48.8,40.7,26.0,81,69,56,30.61,30.41,12,1,12,0.00
2012-3-8,69.5,60.8,54.0,55.9,50.8,47.6,84,71,52,30.41,30.06,17,3,17,0.00
2012-3-9,64.1,55.3,48.5,55.1,41.0,26.2,92,63,34,30.29,30.03,21,3,21,0.55
2012-3-10,61.4,48.8,36.0,29.3,25.2,17.9,73,43,19,30.49,30.29,18,3,18,0.00
2012-3-11,64.9,49.3,34.8,43.3,34.6,26.1,81,59,34,30.56,30.39,9,1,10,0.00
2012-3-12,63.7,57.4,51.7,54.2,49.4,42.3,90,75,66,30.42,30.25,14,2,14,0.00
2012-3-13,74.0,62.6,56.0,60.6,56.4,53.4,92,81,57,30.25,30.10,16,2,16,0.01
2012-3-14,81.5,66.8,50.3,61.0,51.0,43.7,93,63,28,30.23,30.12,12,1,12,0.01
2012-3-15,82.8,67.8,51.2,57.0,51.0,46.3,86,58,29,30.24,30.13,23,2,23,0.00
2012-3-16,81.8,67.3,54.9,57.0,54.1,50.2,84,65,38,30.21,30.06,18,3,18,0.02
2012-3-17,79.2,66.0,56.6,58.9,55.7,52.7,92,71,43,30.21,30.10,17,1,17,0.03
2012-3-18,78.3,65.3,57.6,61.6,56.7,53.1,92,75,49,30.29,30.14,14,1,14,0.28
2012-3-19,83.7,67.9,54.2,62.9,55.4,51.6,92,68,36,30.19,30.05,10,1,10,0.00
2012-3-20,82.5,71.1,58.2,61.4,56.9,53.4,87,63,40,30.17,30.05,13,2,13,0.00
2012-3-21,78.7,67.1,57.3,61.6,56.5,53.5,92,71,43,30.25,30.12,13,1,13,0.00
2012-3-22,73.3,64.3,58.4,64.6,60.2,55.2,92,87,70,30.23,30.12,14,1,16,0.25
2012-3-23,74.4,64.8,58.7,66.0,61.2,56.6,93,88,70,30.14,29.93,12,1,12,0.46
2012-3-24,74.5,65.9,57.3,61.8,54.6,41.3,92,71,33,29.93,29.70,22,4,27,0.30
2012-3-25,68.7,59.1,53.2,51.3,48.0,44.5,83,67,51,29.86,29.70,22,2,27,0.90
2012-3-26,81.0,67.9,53.4,50.0,46.8,35.0,83,50,20,30.03,29.84,17,2,18,0.00
2012-3-27,70.0,58.2,49.1,48.3,39.9,30.7,77,53,33,30.29,30.02,17,2,17,0.00
2012-3-28,79.1,63.5,48.9,59.8,50.8,38.7,89,65,43,30.22,29.91,25,4,25,0.00
2012-3-29,83.3,69.9,59.0,64.7,55.4,50.7,88,62,35,29.95,29.83,20,3,20,0.03
2012-3-30,78.0,65.1,53.5,58.5,52.4,43.4,92,67,37,29.97,29.83,16,1,16,0.00
2012-3-31,76.7,63.7,53.3,63.4,57.9,51.0,92,83,53,29.87,29.71,9,2,20,1.00
2012-4-1,79.9,63.2,50.3,62.2,53.6,48.1,93,75,39,29.86,29.72,13,1,16,0.06
2012-4-2,88.2,70.1,53.7,66.2,59.2,51.1,92,71,39,29.86,29.69,16,2,16,0.04
2012-4-3,72.4,63.9,58.3,64.4,59.7,56.0,92,87,75,29.98,29.86,10,1,10,0.02
2012-4-4,81.9,66.7,55.8,69.5,59.8,53.3,93,80,49,29.91,29.64,14,1,18,0.12
2012-4-5,79.3,64.3,51.1,64.0,57.7,48.8,92,80,55,29.76,29.58,18,3,20,0.18
2012-4-6,65.4,52.7,45.4,48.8,44.7,38.8,92,77,47,30.08,29.74,18,3,18,0.25
2012-4-7,70.8,55.3,41.9,46.4,40.7,33.5,91,63,32,30.26,30.08,12,1,12,0.03
2012-4-8,76.7,61.3,44.3,53.7,44.6,36.8,91,59,29,30.15,29.95,14,1,17,0.01
2012-4-9,76.5,64.5,52.8,44.8,33.3,18.8,64,34,12,30.08,29.85,20,4,22,0.00
2012-4-10,74.2,61.4,43.1,44.4,38.9,28.5,80,46,30,29.98,29.83,23,5,23,0.00
2012-4-11,65.8,54.1,43.6,29.6,25.7,20.4,50,34,20,30.12,29.87,20,3,21,0.00
2012-4-12,63.6,48.6,33.1,35.9,28.3,22.8,77,49,25,30.25,30.11,13,2,14,0.00
2012-4-13,71.0,53.2,35.9,43.7,35.3,28.6,89,57,23,30.25,30.13,17,1,17,0.00
2012-4-14,73.8,59.9,42.2,46.6,42.1,36.7,82,54,35,30.31,30.16,16,3,17,0.00
2012-4-15,77.2,65.3,53.0,62.1,54.6,41.8,81,69,57,30.21,30.11,18,3,21,0.00
2012-4-16,78.5,68.7,60.6,61.5,59.0,55.4,84,72,54,30.18,30.08,22,5,22,0.00
2012-4-17,82.3,71.0,57.4,62.8,59.4,54.2,90,69,48,30.15,29.99,23,2,23,0.02
2012-4-18,60.1,55.2,52.2,57.5,52.5,49.8,92,91,86,30.12,30.03,18,2,25,0.32
2012-4-19,69.0,57.9,49.1,58.2,52.5,46.8,92,83,65,30.08,29.98,14,2,14,0.03
2012-4-20,70.0,60.4,51.0,58.9,54.6,48.7,93,82,64,30.02,29.83,10,1,10,0.01
2012-4-21,73.7,64.3,56.6,62.6,58.3,54.3,93,82,62,29.87,29.66,12,1,12,0.01
2012-4-22,68.2,57.3,42.6,55.8,49.8,36.4,89,76,57,29.67,29.47,18,2,20,0.01
2012-4-23,59.4,48.3,39.6,36.8,31.0,22.8,86,54,29,29.79,29.61,20,2,27,0.00
2012-4-24,65.2,49.9,42.1,41.3,30.9,25.2,65,49,25,29.86,29.76,14,4,27,0.00
2012-4-25,76.4,60.1,45.8,60.5,49.5,41.3,89,70,50,29.93,29.82,9,2,20,0.00
2012-4-26,74.9,66.3,60.1,64.3,59.0,54.7,91,78,67,29.91,29.79,18,6,25,0.00
2012-4-27,79.8,68.0,62.0,68.4,62.5,59.0,92,83,63,30.02,29.85,12,2,16,0.00
2012-4-28,72.6,62.9,55.7,60.5,56.5,52.5,93,80,62,30.13,30.00,8,1,12,0.00
2012-4-29,84.2,66.9,51.4,64.6,57.8,49.2,93,75,43,30.14,30.05,6,1,13,0.00
2012-4-30,84.9,71.2,57.3,69.0,62.0,55.0,93,74,49,30.17,30.02,10,2,14,0.00
2012-5-1,83.6,73.9,63.3,69.3,64.8,59.0,87,74,58,30.12,30.00,10,3,17,0.00
2012-5-2,86.2,74.9,65.9,68.3,63.3,60.6,85,69,44,30.11,30.02,10,3,14,0.00
2012-5-3,88.0,74.7,62.7,67.1,63.2,59.4,90,69,44,30.12,30.02,8,2,13,0.00
2012-5-4,82.5,72.6,64.8,66.7,63.5,61.0,89,74,56,30.05,29.91,14,3,18,0.00
2012-5-5,86.0,74.2,61.9,70.9,63.9,59.2,92,71,52,29.93,29.79,8,1,10,0.00
2012-5-6,81.8,72.2,61.9,65.6,62.3,58.1,88,72,54,29.98,29.87,12,2,22,0.00
2012-5-7,81.2,70.2,61.9,67.1,61.7,58.9,91,76,51,30.01,29.87,8,1,14,0.00
2012-5-8,79.5,70.1,65.4,66.7,63.9,60.3,91,81,63,29.92,29.78,10,3,13,0.00
2012-5-9,70.4,63.6,51.1,65.3,59.9,48.8,93,88,70,29.85,29.68,9,1,17,0.00
2012-5-10,74.8,60.6,46.4,57.8,48.9,44.2,93,68,39,29.96,29.78,9,1,13,0.00
2012-5-11,76.1,61.5,47.8,55.8,47.8,44.1,87,64,36,30.19,29.96,10,1,17,0.00
2012-5-12,74.0,61.6,51.7,60.3,54.4,47.8,90,78,60,30.32,30.19,4,0,6,0.00
2012-5-13,64.0,59.7,53.9,61.0,57.1,51.3,93,91,88,30.23,30.05,4,0,8,0.00
2012-5-14,77.6,67.5,59.4,66.1,62.8,57.4,94,86,63,30.05,29.86,8,2,14,0.00
2012-5-15,80.1,69.3,60.6,66.0,61.5,57.9,93,78,51,29.96,29.87,10,2,13,0.00
2012-5-16,83.3,70.4,57.8,65.7,60.4,55.5,92,73,45,29.95,29.85,4,1,9,0.00
2012-5-17,80.1,68.9,59.8,64.1,59.9,56.1,88,74,55,30.01,29.90,6,1,12,0.00
2012-5-18,77.8,67.3,58.7,62.2,59.2,56.1,92,77,56,30.08,29.98,13,2,21,0.00
2012-5-19,78.2,66.6,53.8,59.3,55.6,50.5,90,70,47,30.14,30.02,12,2,14,0.00
2012-5-20,82.7,68.2,55.1,58.7,54.8,51.3,89,66,36,30.11,30.00,12,2,17,0.00
2012-5-21,84.2,69.1,55.8,61.9,57.2,52.3,89,68,41,30.03,29.86,6,1,16,0.00
2012-5-22,80.1,67.6,57.4,68.0,60.8,54.5,92,80,54,29.88,29.75,23,1,30,0.00
2012-5-23,75.2,65.6,58.2,66.4,61.5,56.2,94,87,69,29.90,29.80,6,0,10,0.00
2012-5-24,86.8,72.0,59.5,69.7,63.5,57.2,93,77,44,29.98,29.88,6,1,10,0.00
2012-5-25,91.2,76.2,64.1,68.9,63.8,60.4,91,69,37,30.09,29.98,4,1,9,0.00
2012-5-26,90.1,77.0,64.6,70.6,65.6,61.0,89,70,45,30.11,30.01,10,1,18,0.00
2012-5-27,86.4,76.3,68.1,68.4,65.7,63.8,87,71,50,30.08,29.99,12,2,21,0.00
2012-5-28,86.2,73.1,65.9,72.2,67.0,62.9,92,82,56,30.04,29.91,12,1,14,0.00
2012-5-29,79.9,72.6,67.5,72.1,68.3,65.1,93,87,71,29.97,29.80,4,0,10,0.00
2012-5-30,90.1,74.7,62.1,68.6,62.3,54.8,93,69,36,29.81,29.74,6,1,10,0.00
2012-5-31,84.7,73.4,57.7,70.2,62.2,53.8,88,70,49,29.85,29.74,10,2,16,0.00
2012-6-1,77.2,69.0,58.9,67.1,63.1,55.7,91,82,67,29.83,29.69,10,3,31,0.00
2012-6-2,76.6,63.8,52.2,58.6,51.8,48.1,89,67,42,29.93,29.78,9,1,13,0.00
2012-6-3,82.3,67.5,50.0,61.2,54.0,46.6,89,65,39,29.97,29.83,16,3,22,0.00
2012-6-4,84.7,71.4,62.7,68.2,62.8,58.1,92,75,52,29.83,29.68,12,2,20,0.00
2012-6-5,77.4,67.2,61.4,63.4,60.4,58.2,93,79,55,29.84,29.70,9,1,13,0.00
2012-6-6,73.3,64.4,59.4,61.0,58.9,57.0,93,83,62,29.99,29.82,10,2,17,0.00
2012-6-7,82.0,68.9,59.3,63.7,59.7,56.6,92,74,47,30.05,29.95,6,1,10,0.00
2012-6-8,85.0,71.6,57.7,65.7,60.1,55.5,93,70,41,30.05,29.95,4,1,9,0.00
2012-6-9,83.4,72.0,60.4,64.9,60.9,57.4,91,70,47,30.06,29.97,9,2,14,0.00
2012-6-10,71.0,66.8,63.7,64.9,62.1,58.9,91,85,68,30.11,30.02,6,1,10,0.00
2012-6-11,69.7,65.0,63.6,67.3,62.7,61.2,93,92,91,30.10,30.05,5,0,6,0.00
2012-6-18,84.4,74.3,66.8,65.7,63.0,59.9,83,69,51,30.06,29.99,9,2,13,0.00
2012-6-19,87.3,75.6,63.7,67.5,63.7,59.9,88,68,46,30.15,30.06,10,1,10,0.00
2012-6-20,88.7,76.8,64.2,71.2,66.5,61.5,91,72,48,30.15,30.03,6,1,10,0.00
2012-6-21,89.5,77.5,66.8,72.7,67.8,63.7,91,73,51,30.05,29.89,10,2,13,0.01
2012-6-22,89.0,77.8,68.4,72.8,68.0,64.7,88,73,52,29.93,29.82,8,2,17,0.00
2012-6-23,91.5,77.0,64.8,73.0,67.6,62.1,92,75,47,29.95,29.85,6,1,13,0.00
2012-6-24,91.8,78.8,67.8,73.2,67.7,-99.9,92,71,49,29.96,29.83,20,-4,20,0.00
2012-6-25,88.7,77.5,67.8,74.6,69.4,64.8,92,77,54,29.90,29.67,12,1,12,0.11
2012-6-26,84.0,73.6,62.4,68.7,58.5,48.4,92,63,31,29.85,29.70,21,3,21,0.00
2012-6-27,88.2,71.8,54.8,62.4,55.7,50.8,87,60,32,29.99,29.85,13,1,14,0.00
2012-6-28,96.6,77.7,59.7,70.2,61.6,54.9,85,61,31,30.01,29.88,14,2,14,0.00
2012-6-29,102.5,85.3,65.1,73.3,65.2,59.2,83,56,28,29.88,29.77,10,1,10,0.00
2012-6-30,104.7,88.5,75.2,75.0,70.4,66.8,78,58,33,29.87,29.78,8,1,13,0.00
2012-7-1,106.3,87.1,70.8,76.3,68.0,58.5,88,58,23,30.02,29.81,22,2,23,0.30
2012-7-2,92.1,79.4,68.3,75.3,69.1,65.2,92,73,50,30.13,29.92,26,3,26,0.30
2012-7-3,94.5,82.6,70.9,75.1,70.3,66.7,88,68,45,30.00,29.89,16,1,16,0.00
2012-7-4,93.0,81.3,71.0,75.2,69.9,64.1,83,69,53,29.98,29.89,10,1,12,0.00
2012-7-5,100.5,82.1,69.5,74.8,69.4,65.6,91,69,37,29.97,29.84,23,1,26,0.33
2012-7-6,97.3,81.2,68.1,74.2,69.0,65.1,93,70,38,29.95,29.88,10,1,12,0.51
2012-7-7,92.7,81.6,70.6,76.0,71.2,67.2,91,72,50,30.00,29.90,13,2,13,0.00
2012-7-8,94.8,84.5,75.8,77.2,72.5,68.1,83,68,52,29.96,29.82,14,3,14,0.00
2012-7-9,94.3,83.0,74.2,75.4,71.4,68.3,83,69,45,29.89,29.82,21,2,21,0.00
2012-7-10,89.7,76.3,69.6,74.9,70.2,64.6,92,82,53,30.01,29.88,17,1,18,0.20
2012-7-11,85.1,72.8,67.8,73.2,68.2,65.2,93,86,63,30.09,29.97,14,1,14,0.34
2012-7-12,74.0,69.1,65.3,68.6,65.9,63.2,93,90,82,30.13,30.04,13,2,14,0.08
2012-7-13,84.6,73.9,68.2,75.3,69.9,66.2,94,88,70,30.15,30.05,8,0,8,0.06
2012-7-14,88.5,77.3,71.2,73.6,70.6,68.8,94,81,56,30.18,30.06,16,1,16,0.08
2012-7-15,88.2,75.6,68.6,74.7,70.2,66.0,93,84,59,30.17,30.04,14,1,14,0.07
2012-7-16,91.8,76.2,68.6,75.2,69.7,66.4,94,82,50,30.09,29.97,21,1,21,0.08
2012-7-17,93.0,80.0,67.8,76.0,70.8,65.7,93,76,48,30.03,29.93,13,1,13,0.04
2012-7-18,91.5,77.7,69.3,75.4,70.2,66.8,92,79,52,30.04,29.95,18,1,18,0.02
2012-7-19,89.6,77.0,68.4,75.4,70.5,65.8,93,81,58,30.08,29.97,20,2,20,0.01
2012-7-20,86.0,76.3,68.9,74.9,70.8,65.1,92,83,66,30.01,29.93,25,3,25,0.01
2012-7-21,85.5,77.3,69.2,75.3,71.0,66.5,93,82,65,30.11,29.97,17,4,18,0.01
2012-7-22,90.7,81.5,72.9,73.9,70.7,68.7,88,71,51,30.20,30.10,21,3,21,0.01
2012-7-23,90.5,81.9,75.4,77.2,72.6,69.4,89,74,54,30.22,30.06,13,2,13,0.00
2012-7-24,96.8,82.1,71.8,79.3,72.2,68.4,91,74,46,30.08,29.93,13,1,14,0.01
2012-7-25,92.3,81.0,71.0,76.5,71.1,67.5,90,73,49,30.02,29.91,14,2,14,0.00
2012-7-26,93.8,84.5,74.2,75.7,72.6,70.1,88,69,51,29.95,29.83,14,2,14,0.00
2012-7-27,93.1,82.5,74.8,75.6,72.3,66.9,86,72,49,29.97,29.87,17,2,23,0.00
2012-7-28,93.6,81.6,70.3,76.2,70.4,66.9,91,71,43,30.03,29.92,14,1,14,0.00
2012-7-29,94.0,80.5,68.1,73.8,68.6,63.8,89,69,41,30.04,29.93,8,1,9,0.00
2012-7-30,92.5,80.0,70.7,74.6,69.8,65.7,86,72,48,30.02,29.93,13,1,14,0.00
2012-7-31,75.5,71.2,68.0,71.4,68.1,64.7,93,90,82,30.01,29.94,12,0,13,0.00
2012-8-1,94.5,78.7,65.7,75.4,70.1,63.9,94,77,45,29.97,29.87,10,0,10,3.03
2012-8-2,92.7,81.5,68.9,78.1,71.7,66.5,93,74,48,29.99,29.85,13,1,13,0.00
2012-8-3,88.5,78.4,70.3,77.2,72.1,67.9,93,82,62,30.07,29.90,16,1,16,0.00
2012-8-4,84.2,75.3,71.1,76.6,71.6,67.3,93,88,74,30.21,30.05,10,0,10,0.63
2012-8-5,91.0,78.7,69.9,75.3,71.6,67.7,94,80,55,30.26,30.12,13,1,13,0.21
2012-8-6,89.3,77.8,72.3,75.4,71.4,69.8,93,82,59,30.16,30.01,13,1,13,0.88
2012-8-7,83.4,75.9,71.3,74.6,71.8,69.2,94,87,74,30.07,29.98,9,1,9,1.11
2012-8-8,90.3,76.9,69.9,77.1,71.5,67.5,93,84,61,30.05,29.97,12,2,13,0.01
2012-8-9,87.0,73.4,67.9,77.1,69.2,65.7,94,87,68,30.03,29.86,20,1,20,0.00
2012-8-10,83.6,74.0,68.3,73.7,69.1,65.8,94,85,70,29.93,29.82,18,3,25,1.43
2012-8-11,83.0,74.1,66.3,73.0,68.5,62.2,94,83,68,29.97,29.87,21,1,25,1.22
2012-8-12,89.3,74.1,63.8,70.8,64.8,58.7,90,74,44,30.04,29.97,9,1,9,2.74
2012-8-13,86.3,73.6,61.3,69.6,63.6,58.7,94,74,43,30.08,29.96,12,1,12,0.00
2012-8-14,85.2,75.6,65.4,71.5,67.5,62.5,92,77,61,30.01,29.89,16,2,17,1.06
2012-8-15,86.9,77.3,68.0,74.3,70.1,63.8,91,79,58,30.01,29.91,16,2,16,0.00
2012-8-16,87.5,74.7,62.4,70.9,65.3,59.8,92,75,49,30.08,29.97,9,0,9,0.00
2012-8-17,87.0,75.1,64.3,73.9,68.2,61.9,93,80,63,30.03,29.86,8,1,10,0.00
2012-8-18,83.5,74.1,66.0,73.0,68.2,63.7,93,83,63,29.97,29.86,9,0,9,0.08
2012-8-19,79.0,72.4,68.4,71.4,68.5,66.0,94,88,76,29.92,29.85,12,1,12,0.42
2012-8-20,84.1,73.1,64.2,69.7,65.5,62.1,94,79,49,30.00,29.89,9,1,9,0.01
2012-8-21,87.3,71.5,61.2,70.2,64.1,58.3,93,79,51,30.10,29.99,10,1,12,0.64
2012-8-22,86.0,72.0,63.3,71.8,65.5,61.2,94,81,54,30.15,30.07,17,1,17,0.00
2012-8-23,86.9,74.9,64.9,71.2,67.5,62.8,94,79,54,30.18,30.09,12,1,12,0.02
2012-8-24,86.3,74.3,63.5,69.4,65.5,61.1,93,76,49,30.18,30.09,13,1,13,0.00
2012-8-25,87.8,73.2,61.7,69.8,65.1,59.5,93,77,51,30.19,30.10,9,1,9,0.00
2012-8-26,90.3,74.9,62.2,71.5,65.9,59.8,93,76,45,30.21,30.10,10,1,10,0.00
2012-8-27,89.5,75.4,64.4,71.9,66.9,62.0,93,77,50,30.18,30.03,13,1,14,0.00
2012-8-28,85.3,74.6,68.5,75.6,70.2,65.3,93,86,69,30.06,29.97,12,1,12,0.11
2012-8-29,83.0,75.1,71.1,76.4,71.6,68.3,93,89,74,30.04,29.96,8,0,9,0.22
2012-8-30,82.8,75.6,69.6,75.5,71.5,67.8,94,88,75,30.19,30.00,12,1,12,0.15
2012-8-31,90.5,79.9,73.6,76.3,73.0,70.8,93,80,59,30.25,30.13,13,2,13,0.00
2012-9-1,93.5,81.2,73.1,77.1,72.2,69.7,91,76,51,30.18,30.05,10,1,10,0.00
2012-9-2,87.0,76.5,69.6,75.3,71.5,67.4,94,85,66,30.09,29.96,18,1,18,0.20
2012-9-3,84.4,75.0,71.3,75.5,71.4,68.6,93,89,74,30.02,29.94,17,2,20,0.32
2012-9-4,80.3,74.4,71.8,73.8,71.3,69.6,94,90,80,30.01,29.93,10,1,10,0.07
2012-9-5,84.5,76.6,71.6,74.2,71.4,69.2,93,84,69,29.99,29.89,16,2,17,0.00
2012-9-6,88.7,77.6,71.7,76.0,72.5,69.1,93,85,64,29.99,29.90,10,2,10,0.00
2012-9-7,90.5,77.7,67.9,76.4,71.0,65.8,94,81,58,30.00,29.88,12,1,12,0.00
2012-9-8,87.7,73.6,65.4,74.6,68.7,62.3,94,85,59,29.89,29.72,16,2,17,0.68
2012-9-9,82.5,68.4,57.6,63.4,57.9,52.9,93,72,39,30.06,29.86,12,1,14,0.00
2012-9-10,81.0,69.4,58.8,64.9,58.7,53.9,87,71,47,30.17,30.05,10,1,10,0.00
2012-9-11,80.2,68.5,61.3,65.2,60.7,56.7,92,77,56,30.33,30.17,10,1,10,0.00
2012-9-12,81.8,69.1,60.2,64.6,60.9,57.3,93,77,51,30.38,30.27,12,1,12,0.00
2012-9-13,79.3,66.6,57.0,63.8,59.0,54.8,93,78,53,30.38,30.27,12,1,13,0.00
2012-9-14,84.0,69.8,60.9,67.9,61.4,57.7,90,76,50,30.31,30.19,9,0,10,0.00
2012-9-15,86.3,72.0,61.0,68.8,63.2,58.5,93,76,45,30.23,30.11,10,0,10,0.00
2012-9-16,80.8,70.3,64.9,71.0,66.2,62.2,93,87,68,30.17,30.05,8,0,8,0.14
2012-9-17,74.1,69.6,67.2,70.6,67.4,65.4,95,93,88,30.12,29.86,14,1,16,0.36
2012-9-18,74.3,71.2,66.5,69.9,67.9,61.3,93,89,81,29.88,29.73,22,4,22,0.47
2012-9-19,77.8,66.3,56.5,63.9,58.4,52.2,92,77,55,30.15,29.88,12,1,12,0.00
2012-9-20,78.0,65.7,55.3,65.5,59.6,53.3,95,82,59,30.20,30.08,8,0,8,0.00
2012-9-21,80.9,67.6,57.5,66.2,61.0,55.5,94,81,58,30.13,30.01,14,2,16,0.01
2012-9-22,83.7,72.7,63.3,67.4,64.1,59.0,91,76,54,30.04,29.93,18,4,18,0.00
2012-9-23,80.3,64.9,49.9,59.7,50.7,45.1,91,64,33,30.16,30.04,10,1,10,0.00
2012-9-24,74.8,58.7,47.6,54.8,46.8,42.0,90,67,40,30.27,30.16,17,1,17,0.00
2012-9-25,78.5,61.4,47.8,63.6,54.7,45.6,94,80,53,30.28,30.21,14,1,14,0.00
2012-9-26,82.6,66.8,55.9,64.2,59.2,53.6,93,78,48,30.26,30.17,16,2,16,0.00
2012-9-27,86.3,68.4,54.4,66.8,59.1,52.4,94,75,41,30.25,30.13,9,1,9,0.01
2012-9-28,84.0,71.4,59.4,67.5,63.2,57.1,94,77,55,30.16,29.99,13,2,13,0.00
2012-9-29,79.4,68.3,63.4,69.0,63.9,60.6,93,86,67,30.05,29.87,14,1,14,0.01
2012-9-30,74.6,65.1,57.8,61.7,59.4,54.8,94,83,51,29.96,29.86,10,1,10,0.02
2012-10-1,63.5,61.0,59.8,60.8,59.0,58.1,94,93,90,29.90,29.81,18,3,18,1.55
2012-10-2,78.2,68.4,60.1,67.2,63.3,58.4,95,85,66,30.00,29.77,17,2,17,1.17
2012-10-3,75.7,66.9,61.9,64.3,61.6,58.9,92,84,62,30.23,30.00,12,1,12,0.00
2012-10-4,82.8,69.0,60.2,66.3,61.1,56.3,92,78,49,30.28,30.19,6,0,6,0.00
2012-10-5,81.6,66.1,53.9,62.8,57.3,51.0,91,76,48,30.25,30.05,10,1,10,0.00
2012-10-6,82.5,67.9,55.3,67.8,59.9,52.3,92,77,55,30.07,29.91,13,1,13,0.00
2012-10-7,64.7,60.0,54.6,59.5,55.6,48.6,90,86,79,30.15,29.96,12,1,12,0.48
2012-10-8,54.6,51.5,48.9,49.8,46.3,43.9,88,82,76,30.23,30.14,17,3,17,0.00
2012-10-9,56.6,52.0,48.5,50.8,47.9,45.2,90,86,77,30.24,30.14,6,0,6,0.00
2012-10-10,72.3,57.0,44.8,57.7,49.4,42.0,91,77,50,30.18,30.08,18,2,21,0.00
2012-10-11,69.5,55.3,43.3,52.9,47.2,40.6,92,76,50,30.32,30.17,12,1,12,0.00
2012-10-12,75.9,60.9,48.3,63.3,54.4,45.5,91,80,57,30.31,30.19,9,0,9,0.00
2012-10-13,67.8,56.9,49.5,55.4,49.4,45.0,89,77,56,30.47,30.31,14,2,14,0.00
2012-10-14,69.5,60.3,49.6,62.2,55.5,46.5,90,84,73,30.35,30.05,9,0,9,0.00
2012-10-15,77.3,65.3,50.2,65.0,56.6,44.4,90,76,34,30.05,29.78,18,3,18,0.12
2012-10-16,72.0,56.2,43.7,52.9,46.8,41.0,91,74,40,30.00,29.89,9,1,9,0.00
2012-10-17,72.8,56.9,45.9,53.9,48.0,43.1,92,75,41,30.01,29.89,16,1,16,0.00
2012-10-18,68.1,58.5,49.2,61.3,54.5,46.1,90,86,78,29.92,29.80,13,1,13,0.07
2012-10-19,69.8,59.8,49.4,57.4,45.0,34.1,91,63,28,29.82,29.73,23,3,25,0.01
2012-10-20,70.5,58.0,47.0,54.1,45.7,40.6,87,65,45,29.98,29.79,14,1,14,0.00
2012-10-21,70.8,55.0,42.6,53.6,46.9,39.8,92,76,49,30.18,29.98,10,1,10,0.00
2012-10-22,79.3,59.3,46.1,58.5,50.3,43.1,92,75,41,30.26,30.15,9,1,9,0.00
2012-10-23,78.5,61.1,47.6,59.0,51.6,44.5,92,74,42,30.22,30.11,10,1,10,0.01
2012-10-24,82.4,62.1,47.9,61.0,51.2,44.8,91,72,33,30.22,30.09,10,1,10,0.00
2012-10-25,80.0,62.8,50.9,62.5,55.1,47.2,91,77,51,30.17,30.08,10,0,10,0.00
2012-10-26,79.7,66.8,57.0,64.1,58.2,53.3,89,75,52,30.10,29.94,18,1,18,0.00
2012-10-27,75.3,64.7,58.1,61.2,56.5,50.8,87,76,57,29.96,29.72,17,2,18,0.00
2012-10-28,70.8,56.8,48.0,52.4,46.7,36.3,82,70,49,29.78,29.68,22,4,22,0.01
2012-10-29,56.4,49.1,46.1,36.5,34.0,30.5,64,56,45,29.76,29.62,30,5,32,0.01
2012-10-30,52.5,46.7,44.2,35.5,32.8,29.8,69,58,47,29.73,29.52,23,5,23,0.00
2012-10-31,62.8,51.5,41.7,37.0,31.3,20.8,79,49,23,29.83,29.71,20,4,23,0.00
2012-11-1,65.5,49.1,32.7,33.8,26.9,18.8,83,45,17,29.95,29.82,17,2,17,0.00
2012-11-2,76.0,56.3,41.0,44.8,35.6,23.2,72,47,23,30.00,29.83,23,4,23,0.00
2012-11-3,73.4,55.0,40.0,51.3,40.4,34.8,84,62,31,30.12,29.99,12,1,12,0.00
2012-11-4,68.4,58.5,47.1,53.4,47.4,40.6,80,67,50,30.02,29.91,10,1,10,0.00
2012-11-5,63.7,52.0,43.5,44.1,38.0,31.5,81,61,30,30.10,29.99,12,1,12,0.00
2012-11-6,49.2,44.5,41.5,39.5,36.5,33.7,86,74,62,30.11,29.98,20,2,20,0.03
2012-11-7,48.4,43.3,40.4,43.4,39.0,36.1,90,85,79,30.03,29.91,12,1,12,0.14
2012-11-8,66.0,51.1,39.4,38.8,34.1,29.3,86,56,27,30.18,30.02,14,1,14,0.00
2012-11-9,67.8,49.4,33.7,38.7,34.1,29.6,86,60,26,30.31,30.17,13,1,13,0.00
2012-11-10,72.5,51.8,36.2,44.3,36.9,32.7,88,63,25,30.39,30.28,13,1,13,0.00
2012-11-11,69.7,55.1,37.7,53.3,45.2,34.1,92,71,50,30.49,30.38,17,1,17,0.00
2012-11-12,69.8,61.3,53.4,61.2,56.5,49.9,89,84,73,30.40,30.18,14,2,16,0.15
2012-11-13,62.2,50.9,39.3,58.0,41.0,33.3,90,71,43,30.40,30.18,13,2,13,0.07
2012-11-14,51.2,43.2,36.3,34.2,32.1,29.8,82,66,48,30.50,30.35,18,4,23,0.03
2012-11-15,54.2,42.5,35.3,41.7,35.7,32.0,89,78,59,30.37,30.26,17,2,18,0.08
2012-11-16,60.8,43.7,31.0,41.5,34.4,28.1,90,73,34,30.41,30.29,13,1,13,0.19
2012-11-17,59.2,47.4,38.0,34.6,31.6,26.9,80,56,32,30.50,30.39,22,3,22,0.00
2012-11-18,59.1,51.1,46.3,44.8,37.6,26.8,76,60,46,30.47,30.36,22,4,22,0.00
2012-11-19,62.1,53.7,47.4,51.4,46.2,40.3,88,76,66,30.37,30.22,9,3,18,0.00
2012-11-20,64.8,51.0,43.4,47.8,43.7,39.5,89,77,49,30.23,30.07,6,1,9,0.04
2012-11-21,67.4,50.3,38.7,45.4,39.5,35.5,88,69,38,30.20,30.11,5,1,12,0.00
2012-11-22,69.4,50.3,39.8,37.7,35.6,33.0,82,61,28,30.30,30.18,4,0,8,0.00
2012-11-23,69.4,53.2,36.1,50.2,40.5,32.3,89,65,39,30.20,29.96,12,2,21,0.00
2012-11-24,55.9,45.1,33.7,31.9,25.7,19.1,72,48,29,30.13,30.01,10,1,12,0.00
2012-11-25,54.3,40.7,25.9,25.8,22.5,19.0,80,51,32,30.22,30.08,12,2,18,0.00
2012-11-26,67.5,52.0,33.5,33.3,27.1,19.4,68,40,25,30.23,30.12,6,2,13,0.00
2012-11-27,57.5,53.8,50.5,47.1,39.0,27.8,74,59,34,30.23,30.09,8,2,13,0.00
2012-11-28,58.4,47.4,37.2,42.8,37.0,25.3,87,68,43,30.40,30.22,6,1,9,0.00
2012-11-29,58.6,43.5,31.5,42.5,33.0,24.8,82,67,49,30.50,30.37,8,1,16,0.00
2012-11-30,62.0,47.4,31.4,45.4,38.1,28.3,89,72,51,30.43,30.30,13,2,20,0.00
2012-12-1,66.4,52.4,40.5,51.8,44.6,37.6,90,76,51,30.42,30.33,9,1,13,0.00
2012-12-2,68.7,59.2,48.5,55.6,51.2,44.8,87,75,56,30.39,30.26,9,2,16,0.00
2012-12-3,72.3,59.1,46.8,53.0,49.4,43.1,89,72,48,30.33,30.24,8,2,18,0.00
2012-12-4,72.5,63.1,55.7,55.0,52.9,49.9,82,70,50,30.32,30.19,14,3,23,0.00
2012-12-5,66.5,60.0,55.5,60.5,54.0,46.2,88,81,70,30.20,30.12,12,2,16,0.02
2012-12-6,55.7,51.5,48.3,47.0,38.5,31.8,73,62,47,30.28,30.18,8,3,13,0.00
2012-12-7,59.1,50.2,43.9,50.4,43.3,38.2,90,77,68,30.21,30.02,4,1,8,0.00
2012-12-8,66.2,56.2,44.0,56.8,51.2,41.0,90,84,69,30.07,29.99,12,4,18,0.03
2012-12-9,66.7,59.7,53.1,59.8,55.5,50.2,91,86,77,30.10,29.99,10,2,14,0.00
2012-12-10,63.8,60.1,58.5,58.9,56.7,55.3,89,88,84,29.98,29.70,14,4,21,0.19
2012-12-11,60.4,50.0,41.9,56.8,41.5,35.0,88,73,56,30.14,29.73,16,2,21,0.00
2012-12-12,48.2,44.7,40.7,38.3,36.6,34.2,83,73,66,30.32,30.14,16,3,23,0.00
2012-12-13,55.4,44.9,34.9,34.4,28.8,22.6,73,55,29,30.40,30.27,14,4,23,0.00
2012-12-14,61.4,42.7,29.4,33.9,29.3,23.7,82,62,33,30.41,30.25,6,1,10,0.00
2012-12-15,59.5,47.1,37.0,41.9,36.7,31.7,84,69,45,30.26,30.09,6,1,12,0.00
2012-12-16,55.4,52.8,50.4,50.6,46.7,41.0,91,80,65,30.09,29.91,9,2,10,0.66
2012-12-17,56.7,54.2,52.1,53.5,51.1,49.2,91,89,87,29.91,29.68,12,3,17,0.14
2012-12-18,62.4,53.8,41.0,52.4,41.1,29.4,89,65,31,29.95,29.68,14,4,22,0.00
2012-12-19,66.3,52.6,39.2,45.4,37.9,29.2,85,59,42,30.09,29.95,17,4,23,0.00
2012-12-20,48.5,45.4,40.9,46.0,41.6,31.9,91,87,68,30.09,29.64,20,2,29,1.20
2012-12-21,45.4,40.1,30.6,31.2,24.7,19.0,69,55,41,29.97,29.72,25,9,34,0.18
2012-12-22,59.4,40.8,28.0,28.2,18.9,14.4,69,43,22,30.16,29.97,10,2,20,0.00
2012-12-23,57.1,42.3,28.5,36.6,26.7,16.7,79,56,32,30.17,30.05,10,2,14,0.00
2012-12-24,49.5,45.6,42.1,44.9,40.4,34.9,91,83,59,30.07,29.88,8,2,13,0.71
2012-12-25,47.7,45.2,41.2,45.2,42.4,38.8,92,90,87,30.09,29.93,6,1,14,0.02
2012-12-26,48.9,44.4,37.2,45.5,39.8,30.1,91,84,71,29.93,29.51,17,6,29,1.11
2012-12-27,52.7,39.9,29.9,35.8,31.3,26.8,88,73,50,30.09,29.78,9,2,16,0.98
2012-12-28,44.2,36.6,29.5,34.5,30.9,26.7,89,80,64,30.20,29.99,4,0,9,0.01
2012-12-29,53.9,41.4,32.8,42.8,34.6,26.7,91,78,50,30.10,29.77,16,3,21,0.24
2012-12-30,50.1,35.4,24.2,26.9,24.1,21.2,89,67,35,30.43,30.10,6,1,13,0.00
2012-12-31,52.1,42.7,28.7,30.6,27.3,23.6,83,56,35,30.41,30.15,16,4,26,0.00
2013-1-1,50.8,48.3,44.1,47.2,41.5,29.7,91,79,48,30.13,29.95,14,2,18,0.48